KD7ECD Weather Reports


time (UTC)temp
C
wind
direction
speed
KPH
gust
KPH
rain 1hr
cm
rain 24hr
cm
rain mn
cm
humidity
%
barometer
mb
20260506201450 21 22 11.3 14.5 0.00 0.00 0.00 57 1022.1
20260506200448 21 263 4.8 8.0 0.00 0.00 0.00 56 1021.9
20260506195448 21 338 3.2 20.9 0.00 0.00 0.00 58 1022.0
20260506194448 21 29 9.7 12.9 0.00 0.00 0.00 57 1022.0
20260506193448 21 303 11.3 12.9 0.00 0.00 0.00 59 1022.0
20260506192447 21 26 6.4 8.0 0.00 0.00 0.00 60 1022.1
20260506191446 20 65 1.6 14.5 0.00 0.00 0.00 62 1022.3
20260506190445 20 308 8.0 12.9 0.00 0.00 0.00 62 1022.2
20260506185445 20 311 12.9 14.5 0.00 0.00 0.00 63 1022.7
20260506184445 20 261 8.0 11.3 0.00 0.00 0.00 64 1022.4
20260506183443 18 331 8.0 9.7 0.00 0.00 0.00 67 1022.7
20260506182438 18 305 11.3 11.3 0.00 0.00 0.00 67 1022.6
20260506181433 18 352 8.0 9.7 0.00 0.00 0.00 69 1022.7
20260506180432 17 214 4.8 8.0 0.00 0.00 0.00 70 1022.7
20260506175431 17 1 11.3 12.9 0.00 0.00 0.00 72 1022.9
20260506174426 16 227 4.8 4.8 0.00 0.00 0.00 74 1022.8
20260506173426 16 134 4.8 8.0 0.00 0.00 0.00 76 1022.6
20260506172425 16 207 1.6 3.2 0.00 0.00 0.00 76 1022.8
20260506171425 16 191 1.6 4.8 0.00 0.00 0.00 76 1022.9
20260506170425 16 217 8.0 11.3 0.00 0.00 0.00 76 1022.8
20260506165422 15 229 4.8 4.8 0.00 0.00 0.00 79 1023.2
20260506164420 15 256 6.4 8.0 0.00 0.00 0.00 78 1022.9
20260506163419 15 271 4.8 8.0 0.00 0.00 0.00 80 1023.0
20260506162418 14 330 4.8 8.0 0.00 0.00 0.00 82 1023.3
20260506161414 13 246 3.2 4.8 0.00 0.00 0.00 83 1023.2
20260506160414 13 258 4.8 8.0 0.00 0.00 0.00 83 1023.0
20260506155409 14 278 6.4 8.0 0.00 0.00 0.00 82 1023.2
20260506153530 13 150 0.0 0.0 0.00 0.00 0.00 85 1023.0
20260506152530 13 217 0.0 0.0 0.00 0.00 0.00 86 1023.0
20260506151526 12 221 1.6 3.2 0.00 0.00 0.00 87 1023.4
20260506150525 12 187 4.8 8.0 0.00 0.00 0.00 87 1023.3
20260506145525 12 201 0.0 3.2 0.00 0.00 0.00 88 1023.4
20260506144525 12 183 0.0 9.7 0.00 0.00 0.00 89 1023.5
20260506143520 12 179 0.0 0.0 0.00 0.00 0.00 89 1023.2
20260506142515 12 179 0.0 0.0 0.00 0.00 0.00 89 1023.3
20260506141511 12 184 0.0 0.0 0.00 0.00 0.00 90 1022.9
20260506140506 12 188 0.0 0.0 0.00 0.00 0.00 91 1022.7
20260506135506 11 182 0.0 0.0 0.00 0.00 0.00 91 1022.8
20260506134503 11 195 0.0 0.0 0.00 0.00 0.00 92 1022.7
20260506133503 11 195 0.0 0.0 0.00 0.00 0.00 92 1022.6
20260506132502 11 195 0.0 0.0 0.00 0.00 0.00 92 1022.5
20260506131457 11 201 0.0 0.0 0.00 0.00 0.00 93 1022.4
20260506130456 11 201 0.0 0.0 0.00 0.00 0.00 93 1022.5
20260506125452 11 200 0.0 0.0 0.00 0.00 0.00 93 1022.2
20260506124447 11 201 0.0 0.0 0.00 0.00 0.00 94 1022.1
20260506123442 11 190 0.0 0.0 0.00 0.00 0.00 94 1022.1
20260506122442 11 190 0.0 0.0 0.00 0.00 0.00 94 1022.1
20260506121437 11 190 0.0 0.0 0.00 0.00 0.00 94 1022.2
20260506120438 11 191 0.0 0.0 0.00 0.00 0.00 95 1022.1
20260506115433 11 199 0.0 0.0 0.00 0.00 0.00 95 1022.0
20260506114428 11 212 0.0 0.0 0.00 0.00 0.00 96 1022.0
20260506113424 11 201 0.0 0.0 0.00 0.00 0.00 96 1021.9
20260506112424 11 177 0.0 0.0 0.00 0.00 0.00 96 1022.1
20260506111419 11 176 0.0 0.0 0.00 0.00 0.00 96 1021.5
20260506110414 11 157 0.0 0.0 0.00 0.00 0.00 96 1021.7
20260506105412 11 140 0.0 0.0 0.00 0.00 0.00 96 1021.7
20260506104408 10 154 0.0 0.0 0.00 0.00 0.00 96 1021.6
20260506103402 10 146 0.0 0.0 0.00 0.00 0.00 96 1021.8
20260506102357 10 141 0.0 0.0 0.00 0.00 0.00 96 1021.3
20260506101356 10 155 0.0 0.0 0.00 0.00 0.00 96 1021.6
20260506100352 10 166 0.0 0.0 0.00 0.00 0.00 96 1021.3
20260506095348 10 166 0.0 0.0 0.00 0.00 0.00 96 1021.4
20260506094343 10 141 0.0 0.0 0.00 0.00 0.00 96 1021.2
20260506093343 10 164 0.0 0.0 0.00 0.00 0.00 96 1021.3
20260506092339 10 180 0.0 0.0 0.00 0.00 0.00 96 1021.5
20260506091339 10 174 0.0 0.0 0.00 0.00 0.00 96 1021.3
20260506090339 10 156 0.0 0.0 0.00 0.00 0.00 96 1021.5
20260506085338 10 132 0.0 0.0 0.00 0.00 0.00 96 1021.6
20260506084338 10 135 0.0 0.0 0.00 0.00 0.00 95 1021.7
20260506083338 10 184 0.0 0.0 0.00 0.00 0.00 95 1021.4
20260506082337 11 184 0.0 0.0 0.00 0.00 0.00 94 1021.6
20260506081337 11 184 0.0 0.0 0.00 0.00 0.00 94 1021.7
20260506080337 11 184 0.0 0.0 0.00 0.00 0.00 94 1021.7
20260506073327 11 184 0.0 0.0 0.00 0.00 0.00 94 1021.4
20260506072327 11 184 0.0 0.0 0.00 0.00 0.00 93 1021.4
20260506071323 11 183 0.0 0.0 0.00 0.00 0.00 93 1021.1
20260506070322 11 194 0.0 0.0 0.00 0.00 0.00 93 1021.1
20260506062311 12 229 3.2 3.2 0.00 0.03 0.03 91 1020.6
20260506061310 12 245 4.8 4.8 0.00 0.03 0.03 90 1020.8
20260506060306 12 234 6.4 8.0 0.00 0.03 0.03 91 1020.7
20260506051255 12 220 3.2 4.8 0.00 0.03 0.03 88 1020.3
20260506050250 12 218 6.4 8.0 0.00 0.03 0.03 87 1020.0
20260506044250 13 229 6.4 8.0 0.00 0.03 0.03 86 1020.0
20260506043244 13 245 4.8 4.8 0.00 0.03 0.03 86 1020.2
20260506042241 13 229 4.8 4.8 0.00 0.03 0.03 86 1019.9
20260506041241 13 237 4.8 8.0 0.00 0.03 0.03 85 1019.6
20260506040236 13 243 4.8 8.0 0.00 0.03 0.03 84 1019.6
20260506035235 13 218 4.8 4.8 0.00 0.03 0.03 84 1019.5
20260506034235 13 203 9.7 11.3 0.00 0.03 0.03 84 1019.4
20260506033230 13 213 6.4 8.0 0.00 0.03 0.03 83 1019.3
20260506032229 13 197 9.7 12.9 0.00 0.03 0.03 83 1019.2
20260506031229 13 233 8.0 9.7 0.00 0.03 0.03 83 1019.3
20260506030224 13 211 8.0 11.3 0.00 0.03 0.03 82 1018.8
20260506025223 13 210 11.3 16.1 0.00 0.03 0.03 82 1018.7
20260506024223 13 220 8.0 12.9 0.00 0.03 0.03 81 1018.8
20260506023222 13 241 14.5 16.1 0.00 0.03 0.03 81 1018.8
20260506022217 14 233 11.3 14.5 0.00 0.03 0.03 81 1018.3
20260506021217 14 190 8.0 12.9 0.00 0.03 0.03 80 1018.3
20260506020212 14 210 8.0 9.7 0.00 0.03 0.03 80 1018.2
20260506015213 15 190 6.4 8.0 0.00 0.03 0.03 80 1018.2
20260506014211 15 194 8.0 9.7 0.00 0.03 0.03 79 1018.1
20260506013206 15 218 11.3 14.5 0.00 0.03 0.03 79 1018.3
20260506012205 15 209 11.3 16.1 0.00 0.03 0.03 80 1018.3
20260506011204 15 226 12.9 16.1 0.00 0.03 0.03 79 1018.2
20260506010159 15 196 8.0 11.3 0.00 0.03 0.03 78 1018.2
20260506005159 15 219 9.7 14.5 0.00 0.03 0.03 77 1017.9
20260506004159 15 210 8.0 11.3 0.00 0.03 0.03 76 1018.2
20260506003156 15 223 11.3 16.1 0.00 0.03 0.03 76 1018.0
20260506002154 15 213 8.0 14.5 0.00 0.03 0.03 77 1018.1
20260506001154 15 225 11.3 14.5 0.00 0.03 0.03 77 1018.0
20260506000148 15 213 12.9 14.5 0.00 0.03 0.03 77 1017.7
20260505235149 15 188 12.9 16.1 0.00 0.03 0.03 77 1017.7
20260505234148 15 222 9.7 11.3 0.00 0.03 0.03 78 1017.8
20260505233148 15 207 8.0 9.7 0.00 0.03 0.03 78 1017.9
20260505232143 15 214 8.0 11.3 0.00 0.03 0.03 79 1017.9
20260505231139 15 233 8.0 14.5 0.00 0.03 0.03 78 1018.2
20260505230138 15 253 9.7 12.9 0.00 0.03 0.03 79 1018.3
20260505225137 15 290 8.0 11.3 0.00 0.03 0.03 79 1017.9
20260505224137 15 260 11.3 16.1 0.00 0.03 0.03 79 1017.9
20260505223136 15 226 9.7 12.9 0.00 0.03 0.03 79 1018.2
20260505222134 15 245 9.7 11.3 0.00 0.03 0.03 81 1018.1
20260505221134 14 230 12.9 14.5 0.00 0.03 0.03 81 1018.3
20260505220134 14 242 11.3 14.5 0.00 0.03 0.03 81 1018.1
20260505215130 14 251 12.9 14.5 0.00 0.03 0.03 82 1018.2
20260505214130 14 236 12.9 14.5 0.00 0.03 0.03 81 1018.2
20260505213130 14 237 11.3 16.1 0.00 0.03 0.03 82 1018.3
20260505212130 14 260 14.5 17.7 0.00 0.03 0.03 82 1018.3
20260505211130 14 234 11.3 14.5 0.00 0.03 0.03 83 1018.5
20260505210129 13 198 9.7 12.9 0.00 0.03 0.03 83 1018.6
20260505205125 13 233 11.3 14.5 0.00 0.03 0.03 85 1018.5
20260505204125 13 215 11.3 11.3 0.00 0.03 0.03 86 1018.6
20260505203124 13 221 9.7 12.9 0.00 0.03 0.03 87 1018.7
20260505202122 13 191 9.7 14.5 0.00 0.03 0.03 88 1018.6